Regional Weather Roundup
Issued by NWS

Home | Current Version | Previous Version | Graphics & Text | Print | Product List | Glossary Off
Versions: 1 2 3 4 5 6 7 8 9 10 11 12 13 14 15 16 17 18 19 20 21 22 23 24 25 26 27 28 29 30 31 32 33 34 35 36 37 38 39 40 41 42 43 44 45 46 47 48 49 50

000
ASUS43 KMKX 291200
RWRWI

WISCONSIN REGIONAL WEATHER ROUNDUP
NATIONAL WEATHER SERVICE MILWAUKEE/SULLIVAN WI
700 AM CDT SAT AUG 29 2015

NOTE: "FAIR" INDICATES FEW OR NO CLOUDS BELOW 12,000 FEET WITH NO
SIGNIFICANT WEATHER AND/OR OBSTRUCTIONS TO VISIBILITY.

WIZ001-002-006>008-014>016-023>028-291300-
NORTHWEST WISCONSIN

CITY           SKY/WX    TMP DP  RH WIND       PRES   REMARKS
SUPERIOR ARPT  CLOUDY    59  57  96 W3        30.04R
ASHLAND        CLOUDY    57  57 100 W5        30.00S
6HR MIN TEMP:  57; 6HR MAX TEMP:  63; 6HR PCP:  0.07;

HAYWARD        CLOUDY    57  55  93 SW8       30.03F
6HR MIN TEMP:  54; 6HR MAX TEMP:  60; 6HR PCP:  0.01;

SIREN          CLOUDY    56  54  94 SE5       30.06F
CUMBERLAND     PTCLDY    54  52  94 SE3       30.07F
RICE LAKE      PTCLDY    52  51  95 CALM      30.09F
CHETEK         CLOUDY   N/A N/A N/A CALM      30.08F
LADYSMITH      PTCLDY    53  52  96 SE6       30.08F
6HR MIN TEMP:  51; 6HR MAX TEMP:  55;

EAU CLAIRE     NOT AVBL
MENOMONIE      CLOUDY    56  56  97 NE5       30.08R FOG
6HR MIN TEMP:  52; 6HR MAX TEMP:  56;

NEW RICHMOND   MOCLDY    53  53  99 CALM      30.07R
OSCEOLA        MOCLDY    54  54 100 CALM      30.09S
$$

WIZ003>005-009-010-017-018-291300-
NORTH CENTRAL WISCONSIN

CITY           SKY/WX    TMP DP  RH WIND       PRES   REMARKS
MANITOWISH WTR PTCLDY    54  54 100 S10       30.03F
ARBOR VITAE    PTCLDY    55  53  95 S6        30.07F
WOODRUFF       PTCLDY    55  53  95 S6        30.07F
RHINELANDER    MOCLDY    54  52  93 S6        30.09F
6HR MIN TEMP:  49; 6HR MAX TEMP:  60;

EAGLE RIVER    CLEAR     54  54 100 SW3       30.08F
LAND O LAKES   PTCLDY    55  53  93 SW6       30.07R
PHILLIPS       CLOUDY    50  50 100 S6        30.07F
6HR MIN TEMP:  49; 6HR MAX TEMP:  56;

TOMAHAWK       CLOUDY    50  50  97 CALM      30.12R FOG
MEDFORD        CLOUDY    54  54 100 NE5       30.10S FOG
MERRILL        CLOUDY    55  55 100 CALM      30.12R
6HR MIN TEMP:  52; 6HR MAX TEMP:  59;

$$

WIZ029-030-035-036-043>047-291300-
CENTRAL WISCONSIN

CITY           SKY/WX    TMP DP  RH WIND       PRES   REMARKS
WAUSAU         CLOUDY    58  55  90 CALM      30.08R
6HR MIN TEMP:  56; 6HR MAX TEMP:  59;

MOSINEE        CLOUDY    57  57 100 CALM      30.10R
MARSHFIELD     CLOUDY    59  55  87 NE5       30.08R FOG
6HR MIN TEMP:  56; 6HR MAX TEMP:  59;

STEVENS POINT  CLOUDY    57  56  98 E3        30.08S
WAUPACA        CLOUDY    60  59  97 N3        30.08R FOG
WAUTOMA        NOT AVBL
WISC RAPIDS    LGT RAIN  59  56  89 E7        30.07S FOG
6HR MIN TEMP:  57; 6HR MAX TEMP:  59; 6HR PCP:  0.08;

CAMP DOUGLAS   NOT AVBL
$$

WIZ011>013-019>022-031-037>040-048>050-291300-
NORTHEAST WISCONSIN

CITY           SKY/WX    TMP DP  RH WIND       PRES   REMARKS
ANTIGO         CLOUDY    55  54  98 CALM      30.09F
SHAWANO        DRIZZLE   60  58  93 NE5       30.09S
OCONTO         CLOUDY    57  57 100 CALM      30.09S
STURGEON BAY   CLOUDY    59  55  88 S5        30.12R
6HR MIN TEMP:  57; 6HR MAX TEMP:  61;

GREEN BAY      CLOUDY    60  59  96 NE3       30.09S FOG
6HR MIN TEMP:  58; 6HR MAX TEMP:  60; 6HR PCP:  0.04;

MANITOWOC      NOT AVBL
APPLETON       CLOUDY    59  59 100 VRB5      30.07R FOG
CLINTONVILLE   DRIZZLE   57  55  94 NE3       30.08S
OSHKOSH        CLOUDY    60  58  92 E8        30.07R
6HR MIN TEMP:  57; 6HR MAX TEMP:  60; 6HR PCP:  0.11;

$$

WIZ032>034-041-042-053>061-291300-
SOUTHWEST WISCONSIN

CITY           SKY/WX    TMP DP  RH WIND       PRES   REMARKS
LA CROSSE      CLOUDY    61  58  90 N3        30.04R
6HR MIN TEMP:  60; 6HR MAX TEMP:  61;

SPARTA         CLOUDY    58  57  94 NE7       30.05R
VIROQUA        CLOUDY    58  58 100 NE6       30.02R
BOSCOBEL       CLOUDY    63  62  97 NE5       30.00R FOG
6HR MIN TEMP:  63; 6HR MAX TEMP:  63; 6HR PCP:  0.16;

PRAIRIE DU CHI CLOUDY    63  62  96 N3        29.98R
PLATTEVILLE    CLOUDY    64  64  99 SE3       29.98R
$$

WIZ056-057-062-063-064-067-068-291300-
SOUTH CENTRAL WISCONSIN

CITY           SKY/WX    TMP DP  RH WIND       PRES   REMARKS
REEDSBURG      DRIZZLE   59  59 100 NE5       30.01R
BARABOO/DELLS  DRIZZLE   59  58  96 E8        30.02R
LONE ROCK      NOT AVBL
MINERAL POINT  CLOUDY    64  63  94 SE3       29.98S FOG
MADISON        DRIZZLE   62  60  93 E6        30.01R FOG
6HR MIN TEMP:  60; 6HR MAX TEMP:  63; 6HR PCP:  0.88;

MIDDLETON      CLOUDY    64  64 100 E5        30.01R
WATERTOWN      DRIZZLE   60  60 100 E7        30.03S
MONROE         CLOUDY    61  61 100 S8        29.99R
JANESVILLE     NOT AVBL
$$

WIZ051-052-058>065-066-070>072-291300-
SOUTHEAST WISCONSIN

CITY           SKY/WX    TMP DP  RH WIND       PRES   REMARKS
MILWAUKEE      RAIN      57  56  96 NE5       30.07R FOG
6HR MIN TEMP:  57; 6HR MAX TEMP:  64; 6HR PCP:  0.68;

WAUKESHA       LGT RAIN  57  57 100 E9        30.06S
MILWAUKEE/TIMM RAIN      55  54  94 E6        30.08R
RACINE         LGT RAIN  64  61  90 E3        30.09R FOG
6HR MIN TEMP:  63; 6HR MAX TEMP:  65; 6HR PCP:  0.33;

BURLINGTON     RAIN      61  60  97 SE6       30.05R
KENOSHA        RAIN      64  62  93 CALM      30.07R FOG
6HR MIN TEMP:  64; 6HR MAX TEMP:  66; 6HR PCP:  0.47;

FOND DU LAC    LGT RAIN  60  59  96 E6        30.05F
6HR MIN TEMP:  58; 6HR MAX TEMP:  60; 6HR PCP:  0.28;

SHEBOYGAN      CLOUDY    57  56  96 E8        30.07F FOG
6HR MIN TEMP:  56; 6HR MAX TEMP:  59; 6HR PCP:  0.90;

WEST BEND      RAIN      55  55 100 E8        30.07F
JUNEAU         DRIZZLE   58  58  98 E9        30.05F
$$

LSZ147-162-291300-
LAKE SUPERIOR

STATION/POSITION TIME  TEMP    WIND        PRES    WAVE
                       AIR SEA DIR/SP/G            HT/PER
                 (UTC) (F)     (DEG/KT/KT) (MB)    (FT/S)
W MID LAKE BUOY  1050   58 55  230/ 19/ 23 1013.4R   3/ 4
DEVILS ISLAND    1100   58     270/ 13/ 19 1015.0R
PORT WING        1101   60     240/  7/ 14 1016.3R
SAXON HARBOR     1140   60     190/  8/ 14 1013.9F
$$

LMZ867-665-643>646-291300-
LAKE MICHIGAN

STATION/POSITION TIME  TEMP    WIND        PRES    WAVE
                       AIR SEA DIR/SP/G            HT/PER
                 (UTC) (F)     (DEG/KT/KT) (MB)    (FT/S)
CHAMBERS ISLAND  1100   59     240/  2/  5 1019.3R
S GREEN BAY BUOY 1100   60 62  150/  6/  8 1020.2R
N MID LAKE BUOY  1050   61 64  210/ 14/ 16 1018.7F   2/ 4
NORTHPORT PIER   1100   61      CALM  /  1 1019.0S
SISTER BAY       1119   61        CALM       N/A
ALGOMA LAKESHORE 1114             CALM       N/A
SHEBOYGAN LAKESH 1100   52      20/  7/  8 1019.1S
PORT WASHINGTON  1100   55      30/ 10/ 15 1019.0
ATWATER BUOY     1100   52 47  350/ 12/ 14 1019.2R
MILWAUKEE LAKESH 1100   56      10/  8/  9   N/A
S MID LAKE BUOY  1050   69 68  160/ 12/ 16 1017.2R   1/ 4
KENOSHA   LAKESH 1100   60     180/ 12/ 14 1016.9S
$$

TC  - TEMPERATURE IN CELSIUS
VSB - VISIBILITY IN STATUTE MILES
WCI - WIND CHILL INDEX
HX  - HEAT INDEX




USA.gov is the U.S. government's official web portal to all federal, state and local government web resources and services.